EZY86KZ EGAA-EGKK

Flight info

Callsign EZY86KZ
Flight time 1h 8m
Altitude 33000
Route LISBO DCT RINGA DCT BABGU DCT ETIGA DCT INKOB Q39 NOMSU UQ4 WAL L151 DISIT
Aircraft A319/M-SDE2E3FGIJ1RWXYZ/LB1

Departure

Time 2026-05-07 19:23
Airport Belfast International Airport (EGAA)

Arrival

Time 2026-05-07 20:31
Airport London Gatwick Airport (EGKK)
Time Latitude Longitude Altitude Speed Heading
2026-05-07 18:55 54.66083 -6.21650 272 ft 0 kts 335°
2026-05-07 19:15 54.66077 -6.21645 272 ft 3 kts 335°
2026-05-07 19:15 54.66058 -6.21630 278 ft 3 kts 335°
2026-05-07 19:16 54.66039 -6.21615 276 ft 3 kts 335°
2026-05-07 19:16 54.66020 -6.21599 276 ft 3 kts 335°
2026-05-07 19:16 54.66001 -6.21584 274 ft 3 kts 335°
2026-05-07 19:16 54.65985 -6.21571 276 ft 3 kts 342°
2026-05-07 19:17 54.65965 -6.21565 276 ft 3 kts
2026-05-07 19:17 54.65945 -6.21572 275 ft 3 kts 30°
2026-05-07 19:17 54.65929 -6.21594 274 ft 3 kts 61°
2026-05-07 19:17 54.65927 -6.21600 275 ft 0 kts 65°
2026-05-07 19:19 54.65930 -6.21588 273 ft 4 kts 65°
2026-05-07 19:19 54.65966 -6.21457 272 ft 19 kts 65°
2026-05-07 19:19 54.66035 -6.21195 272 ft 26 kts 65°
2026-05-07 19:20 54.66114 -6.20908 275 ft 27 kts 64°
2026-05-07 19:20 54.66194 -6.20613 273 ft 27 kts 65°
2026-05-07 19:20 54.66275 -6.20312 275 ft 28 kts 65°
2026-05-07 19:20 54.66355 -6.20010 272 ft 24 kts 64°
2026-05-07 19:21 54.66396 -6.19848 272 ft 10 kts 73°
2026-05-07 19:21 54.66373 -6.19733 272 ft 11 kts 132°
2026-05-07 19:21 54.66305 -6.19661 272 ft 11 kts 153°
2026-05-07 19:21 54.66268 -6.19648 272 ft 3 kts 220°
2026-05-07 19:22 54.66266 -6.19660 272 ft 1 kts 246°
2026-05-07 19:22 54.66227 -6.19812 272 ft 44 kts 245°
2026-05-07 19:22 54.65975 -6.20745 274 ft 124 kts 245°
2026-05-07 19:22 54.65550 -6.22320 635 ft 149 kts 241°
2026-05-07 19:23 54.65107 -6.23949 1448 ft 153 kts 243°
2026-05-07 19:23 54.64396 -6.25473 1966 ft 174 kts 215°
2026-05-07 19:23 54.63206 -6.25761 2765 ft 185 kts 169°
2026-05-07 19:23 54.61977 -6.24606 3220 ft 215 kts 143°
2026-05-07 19:24 54.60825 -6.22812 3973 ft 231 kts 140°
2026-05-07 19:24 54.59594 -6.20814 4616 ft 256 kts 140°
2026-05-07 19:24 54.58278 -6.18631 5528 ft 267 kts 139°
2026-05-07 19:24 54.56935 -6.16389 6624 ft 270 kts 139°
2026-05-07 19:25 54.55555 -6.14085 7679 ft 275 kts 139°
2026-05-07 19:25 54.54171 -6.11785 8738 ft 279 kts 140°
2026-05-07 19:25 54.52835 -6.09328 9768 ft 286 kts 130°
2026-05-07 19:25 54.51805 -6.06276 10413 ft 309 kts 116°
2026-05-07 19:26 54.50956 -6.02757 10986 ft 325 kts 115°
2026-05-07 19:26 54.50075 -5.99071 11849 ft 332 kts 115°
2026-05-07 19:26 54.49192 -5.95372 12722 ft 338 kts 115°
2026-05-07 19:26 54.48288 -5.91598 13582 ft 344 kts 115°
2026-05-07 19:27 54.47363 -5.87771 14372 ft 349 kts 116°
2026-05-07 19:27 54.46422 -5.83901 15161 ft 353 kts 116°
2026-05-07 19:27 54.45466 -5.79995 15954 ft 356 kts 117°
2026-05-07 19:27 54.44321 -5.76213 16734 ft 358 kts 123°
2026-05-07 19:28 54.43092 -5.72472 17525 ft 361 kts 124°
2026-05-07 19:28 54.41823 -5.68723 18297 ft 365 kts 124°
2026-05-07 19:28 54.40529 -5.64941 18968 ft 369 kts 124°
2026-05-07 19:28 54.39225 -5.61135 19643 ft 372 kts 124°
2026-05-07 19:29 54.37909 -5.57279 20320 ft 376 kts 124°
2026-05-07 19:29 54.36493 -5.53506 20980 ft 378 kts 129°
2026-05-07 19:29 54.34848 -5.49997 21639 ft 378 kts 138°
2026-05-07 19:29 54.33003 -5.46767 22314 ft 381 kts 139°
2026-05-07 19:30 54.31131 -5.43533 22968 ft 384 kts 139°
2026-05-07 19:30 54.29271 -5.40217 23603 ft 391 kts 133°
2026-05-07 19:30 54.27673 -5.36391 24145 ft 397 kts 128°
2026-05-07 19:30 54.26103 -5.32494 24711 ft 399 kts 128°
2026-05-07 19:31 54.24526 -5.28574 25257 ft 402 kts 128°
2026-05-07 19:31 54.22935 -5.24619 25794 ft 405 kts 128°
2026-05-07 19:31 54.21335 -5.20639 26321 ft 407 kts 128°
2026-05-07 19:31 54.19722 -5.16636 26842 ft 410 kts 128°
2026-05-07 19:32 54.18100 -5.12617 27356 ft 413 kts 128°
2026-05-07 19:32 54.16461 -5.08569 27872 ft 416 kts 128°
2026-05-07 19:32 54.14808 -5.04499 28377 ft 418 kts 128°
2026-05-07 19:32 54.13143 -5.00409 28881 ft 421 kts 128°
2026-05-07 19:33 54.11468 -4.96300 29366 ft 424 kts 128°
2026-05-07 19:33 54.09777 -4.92157 29847 ft 427 kts 128°
2026-05-07 19:33 54.08074 -4.87990 30279 ft 430 kts 128°
2026-05-07 19:33 54.06358 -4.83804 30678 ft 432 kts 128°
2026-05-07 19:34 54.04630 -4.79594 31069 ft 435 kts 128°
2026-05-07 19:34 54.02846 -4.75348 31457 ft 437 kts 129°
2026-05-07 19:34 54.01029 -4.71198 31891 ft 437 kts 130°
2026-05-07 19:34 53.99185 -4.67099 32433 ft 435 kts 131°
2026-05-07 19:35 53.97334 -4.63036 32997 ft 433 kts 131°
2026-05-07 19:35 53.95505 -4.59026 33643 ft 429 kts 131°
2026-05-07 19:35 53.93690 -4.55023 34298 ft 424 kts 131°
2026-05-07 19:35 53.91899 -4.51051 34771 ft 423 kts 131°
2026-05-07 19:36 53.90108 -4.47070 34954 ft 424 kts 130°
2026-05-07 19:36 53.88319 -4.43092 34994 ft 424 kts 130°
2026-05-07 19:36 53.85363 -4.36374 34994 ft 425 kts 129°
2026-05-07 19:37 53.82000 -4.28128 34997 ft 425 kts 129°
2026-05-07 19:37 53.78114 -4.20677 34999 ft 422 kts 136°
2026-05-07 19:38 53.74137 -4.13366 35003 ft 423 kts 136°
2026-05-07 19:38 53.70151 -4.06060 35002 ft 423 kts 136°
2026-05-07 19:39 53.66169 -3.98769 34995 ft 423 kts 136°
2026-05-07 19:39 53.62178 -3.91491 34993 ft 423 kts 136°
2026-05-07 19:40 53.58183 -3.84228 34992 ft 423 kts 136°
2026-05-07 19:40 53.54164 -3.76929 34993 ft 423 kts 136°
2026-05-07 19:41 53.50163 -3.69684 34990 ft 423 kts 136°
2026-05-07 19:41 53.46150 -3.62450 34992 ft 423 kts 136°
2026-05-07 19:42 53.42127 -3.55235 34993 ft 423 kts 136°
2026-05-07 19:42 53.38098 -3.48033 34994 ft 424 kts 136°
2026-05-07 19:43 53.34066 -3.40828 34998 ft 424 kts 136°
2026-05-07 19:43 53.30031 -3.33624 35003 ft 425 kts 136°
2026-05-07 19:44 53.25986 -3.26425 35012 ft 425 kts 136°
2026-05-07 19:44 53.21929 -3.19241 35013 ft 425 kts 136°
2026-05-07 19:45 53.17869 -3.12080 35009 ft 425 kts 136°
2026-05-07 19:45 53.13799 -3.04922 35015 ft 425 kts 136°
2026-05-07 19:46 53.09726 -2.97775 35016 ft 425 kts 136°
2026-05-07 19:46 53.05656 -2.90637 35011 ft 425 kts 136°
2026-05-07 19:47 53.01558 -2.83468 35006 ft 426 kts 136°
2026-05-07 19:47 52.97461 -2.76357 35010 ft 426 kts 136°
2026-05-07 19:48 52.93364 -2.69269 35008 ft 426 kts 136°
2026-05-07 19:48 52.89264 -2.62180 35007 ft 426 kts 136°
2026-05-07 19:49 52.85164 -2.55087 35008 ft 426 kts 136°
2026-05-07 19:49 52.80995 -2.48131 35008 ft 424 kts 143°
2026-05-07 19:50 52.76172 -2.42596 35015 ft 422 kts 149°
2026-05-07 19:50 52.71294 -2.37225 35011 ft 422 kts 149°
2026-05-07 19:51 52.66409 -2.31828 35016 ft 422 kts 149°
2026-05-07 19:51 52.61525 -2.26463 35017 ft 423 kts 149°
2026-05-07 19:52 52.56624 -2.21109 35017 ft 423 kts 149°
2026-05-07 19:52 52.51687 -2.15726 35021 ft 423 kts 149°
2026-05-07 19:53 52.46791 -2.10392 34573 ft 422 kts 149°
2026-05-07 19:53 52.44341 -2.07729 33939 ft 423 kts 149°
2026-05-07 19:53 52.41889 -2.05073 33198 ft 423 kts 149°
2026-05-07 19:54 52.39429 -2.02412 32438 ft 424 kts 149°
2026-05-07 19:54 52.36966 -1.99745 31666 ft 426 kts 149°
2026-05-07 19:54 52.34505 -1.97078 31045 ft 423 kts 149°
2026-05-07 19:54 52.32055 -1.94435 30487 ft 420 kts 149°
2026-05-07 19:55 52.29623 -1.91821 29924 ft 416 kts 149°
2026-05-07 19:55 52.27215 -1.89232 29308 ft 413 kts 149°
2026-05-07 19:55 52.24829 -1.86669 28710 ft 409 kts 149°
2026-05-07 19:55 52.22465 -1.84130 28127 ft 405 kts 149°
2026-05-07 19:56 52.20127 -1.81620 27566 ft 401 kts 149°
2026-05-07 19:56 52.17805 -1.79130 27035 ft 398 kts 149°
2026-05-07 19:56 52.15500 -1.76670 26510 ft 394 kts 149°
2026-05-07 19:56 52.13215 -1.74241 26011 ft 391 kts 149°
2026-05-07 19:57 52.10943 -1.71830 25527 ft 388 kts 149°
2026-05-07 19:57 52.08697 -1.69441 25070 ft 385 kts 149°
2026-05-07 19:57 52.06464 -1.67061 24609 ft 382 kts 149°
2026-05-07 19:57 52.04246 -1.64700 24145 ft 379 kts 149°
2026-05-07 19:58 52.02017 -1.62334 23685 ft 377 kts 149°
2026-05-07 19:58 51.99829 -1.60021 23133 ft 374 kts 149°
2026-05-07 19:58 51.97658 -1.57725 22632 ft 371 kts 149°
2026-05-07 19:58 51.95502 -1.55444 22140 ft 368 kts 149°
2026-05-07 19:59 51.93367 -1.53185 21643 ft 365 kts 149°
2026-05-07 19:59 51.91246 -1.50943 21160 ft 363 kts 149°
2026-05-07 19:59 51.89142 -1.48723 20676 ft 360 kts 149°
2026-05-07 19:59 51.87052 -1.46527 20196 ft 357 kts 149°
2026-05-07 20:00 51.84971 -1.44347 19729 ft 355 kts 149°
2026-05-07 20:00 51.82907 -1.42185 19270 ft 352 kts 149°
2026-05-07 20:00 51.80929 -1.40116 19004 ft 345 kts 149°
2026-05-07 20:00 51.78931 -1.38022 18877 ft 333 kts 149°
2026-05-07 20:01 51.77013 -1.36007 18628 ft 326 kts 149°
2026-05-07 20:01 51.75119 -1.34023 18290 ft 323 kts 149°
2026-05-07 20:01 51.73239 -1.32060 17882 ft 321 kts 149°
2026-05-07 20:01 51.71372 -1.30113 17562 ft 317 kts 149°
2026-05-07 20:02 51.69537 -1.28201 17287 ft 313 kts 149°
2026-05-07 20:02 51.67693 -1.26284 17028 ft 316 kts 149°
2026-05-07 20:02 51.65842 -1.24361 16772 ft 316 kts 149°
2026-05-07 20:02 51.64000 -1.22447 16504 ft 315 kts 149°
2026-05-07 20:03 51.62163 -1.20540 16236 ft 313 kts 149°
2026-05-07 20:03 51.60335 -1.18642 16067 ft 312 kts 149°
2026-05-07 20:03 51.58514 -1.16754 16048 ft 312 kts 149°
2026-05-07 20:03 51.56686 -1.14863 15948 ft 312 kts 149°
2026-05-07 20:04 51.54882 -1.13000 15828 ft 311 kts 149°
2026-05-07 20:04 51.54293 -1.12392 15785 ft 311 kts 149°
2026-05-07 20:04 51.52695 -1.10738 15684 ft 310 kts 149°
2026-05-07 20:05 51.50878 -1.08862 15543 ft 310 kts 149°
2026-05-07 20:05 51.49065 -1.06998 15425 ft 309 kts 149°
2026-05-07 20:05 51.47256 -1.05139 15297 ft 308 kts 149°
2026-05-07 20:05 51.45454 -1.03284 15165 ft 308 kts 149°
2026-05-07 20:06 51.43655 -1.01428 15041 ft 307 kts 149°
2026-05-07 20:06 51.41858 -0.99582 15055 ft 307 kts 149°
2026-05-07 20:06 51.40062 -0.97739 15056 ft 307 kts 149°
2026-05-07 20:06 51.38261 -0.95892 15057 ft 307 kts 149°
2026-05-07 20:07 51.36460 -0.94050 15059 ft 307 kts 149°
2026-05-07 20:07 51.34661 -0.92210 15057 ft 307 kts 149°
2026-05-07 20:07 51.32864 -0.90373 15084 ft 307 kts 149°
2026-05-07 20:07 51.31670 -0.89155 15084 ft 307 kts 149°
2026-05-07 20:08 51.30548 -0.88012 15086 ft 307 kts 149°
2026-05-07 20:08 51.28946 -0.86378 14946 ft 308 kts 149°
2026-05-07 20:08 51.27152 -0.84548 14704 ft 305 kts 149°
2026-05-07 20:08 51.25365 -0.82724 14454 ft 304 kts 149°
2026-05-07 20:09 51.23583 -0.80911 14213 ft 302 kts 149°
2026-05-07 20:09 51.21835 -0.79137 14076 ft 293 kts 149°
2026-05-07 20:09 51.20152 -0.77426 14079 ft 280 kts 149°
2026-05-07 20:10 51.17019 -0.74240 14082 ft 255 kts 150°
2026-05-07 20:10 51.15551 -0.72754 14080 ft 246 kts 150°
2026-05-07 20:10 51.14120 -0.71307 14077 ft 243 kts 150°
2026-05-07 20:10 51.12693 -0.69866 14078 ft 243 kts 150°
2026-05-07 20:11 51.11267 -0.68433 14077 ft 243 kts 150°
2026-05-07 20:11 51.09838 -0.66998 14077 ft 243 kts 150°
2026-05-07 20:11 51.08413 -0.65565 14079 ft 243 kts 150°
2026-05-07 20:11 51.07929 -0.65077 14081 ft 243 kts 150°
2026-05-07 20:12 51.06707 -0.63797 14071 ft 243 kts 144°
2026-05-07 20:12 51.05703 -0.62358 14024 ft 246 kts 135°
2026-05-07 20:12 51.04667 -0.60140 13873 ft 247 kts 122°
2026-05-07 20:12 51.03892 -0.57700 13677 ft 247 kts 118°
2026-05-07 20:13 51.03131 -0.55253 13482 ft 247 kts 119°
2026-05-07 20:13 51.02357 -0.52785 13296 ft 246 kts 119°
2026-05-07 20:13 51.01593 -0.50352 13095 ft 246 kts 119°
2026-05-07 20:13 51.00828 -0.47924 12915 ft 246 kts 119°
2026-05-07 20:14 51.00064 -0.45499 12721 ft 245 kts 119°
2026-05-07 20:14 50.99302 -0.43081 12540 ft 245 kts 118°
2026-05-07 20:14 50.98541 -0.40662 12360 ft 244 kts 118°
2026-05-07 20:14 50.97783 -0.38256 12184 ft 244 kts 118°
2026-05-07 20:15 50.97024 -0.35848 12070 ft 244 kts 118°
2026-05-07 20:15 50.96268 -0.33444 12058 ft 244 kts 118°
2026-05-07 20:15 50.95509 -0.31039 12056 ft 244 kts 118°
2026-05-07 20:15 50.94749 -0.28640 12060 ft 244 kts 118°
2026-05-07 20:16 50.93988 -0.26237 12059 ft 244 kts 118°
2026-05-07 20:16 50.93228 -0.23839 12060 ft 244 kts 118°
2026-05-07 20:16 50.92467 -0.21438 12059 ft 244 kts 118°
2026-05-07 20:16 50.91706 -0.19043 12056 ft 243 kts 119°
2026-05-07 20:17 50.90942 -0.16648 12056 ft 243 kts 118°
2026-05-07 20:17 50.90169 -0.14223 12060 ft 243 kts 119°
2026-05-07 20:17 50.89400 -0.11814 11822 ft 245 kts 119°
2026-05-07 20:17 50.88638 -0.09418 11569 ft 243 kts 117°
2026-05-07 20:18 50.88216 -0.06836 11348 ft 244 kts 92°
2026-05-07 20:18 50.88478 -0.04203 11182 ft 244 kts 68°
2026-05-07 20:18 50.89375 -0.01946 11077 ft 243 kts 44°
2026-05-07 20:18 50.90748 -0.00419 10989 ft 242 kts 20°
2026-05-07 20:19 50.92368 0.00139 10867 ft 238 kts 357°
2026-05-07 20:19 50.93970 -0.00327 10744 ft 233 kts 334°
2026-05-07 20:19 50.95316 -0.01687 10566 ft 228 kts 313°
2026-05-07 20:19 50.96229 -0.03699 10275 ft 224 kts 292°
2026-05-07 20:20 50.96668 -0.06043 9980 ft 221 kts 281°
2026-05-07 20:20 50.97005 -0.08419 9661 ft 221 kts 281°
2026-05-07 20:20 50.97334 -0.10794 9319 ft 220 kts 281°
2026-05-07 20:20 50.97661 -0.13161 8986 ft 219 kts 281°
2026-05-07 20:21 50.97984 -0.15519 8654 ft 219 kts 281°
2026-05-07 20:21 50.98302 -0.17877 8332 ft 218 kts 281°
2026-05-07 20:21 50.98617 -0.20233 8000 ft 218 kts 281°
2026-05-07 20:21 50.98930 -0.22588 7681 ft 218 kts 281°
2026-05-07 20:22 50.99239 -0.24934 7370 ft 217 kts 281°
2026-05-07 20:22 50.99544 -0.27276 7114 ft 215 kts 281°
2026-05-07 20:22 50.99846 -0.29606 7060 ft 216 kts 281°
2026-05-07 20:22 51.00149 -0.31955 7062 ft 218 kts 281°
2026-05-07 20:23 51.00456 -0.34338 7058 ft 217 kts 281°
2026-05-07 20:23 51.00757 -0.36674 6804 ft 216 kts 281°
2026-05-07 20:23 51.01055 -0.39016 6480 ft 216 kts 281°
2026-05-07 20:23 51.01347 -0.41359 6146 ft 217 kts 281°
2026-05-07 20:24 51.01639 -0.43713 5805 ft 217 kts 281°
2026-05-07 20:24 51.01930 -0.46052 5565 ft 213 kts 282°
2026-05-07 20:24 51.02529 -0.48122 5446 ft 204 kts 314°
2026-05-07 20:24 51.03689 -0.49289 5326 ft 194 kts 338°
2026-05-07 20:25 51.04937 -0.50065 5126 ft 192 kts 341°
2026-05-07 20:25 51.06190 -0.50798 4890 ft 192 kts 341°
2026-05-07 20:25 51.07486 -0.51064 4615 ft 188 kts 15°
2026-05-07 20:25 51.08569 -0.50049 4362 ft 182 kts 45°
2026-05-07 20:26 51.09435 -0.48555 4001 ft 185 kts 51°
2026-05-07 20:26 51.10276 -0.47003 3687 ft 185 kts 51°
2026-05-07 20:26 51.11053 -0.45393 3400 ft 183 kts 64°
2026-05-07 20:26 51.11408 -0.43469 3164 ft 181 kts 78°
2026-05-07 20:27 51.11680 -0.41525 2914 ft 178 kts 78°
2026-05-07 20:27 51.11948 -0.39619 2665 ft 175 kts 79°
2026-05-07 20:27 51.12211 -0.37745 2435 ft 172 kts 79°
2026-05-07 20:27 51.12468 -0.35902 2203 ft 170 kts 79°
2026-05-07 20:28 51.12723 -0.34079 1971 ft 167 kts 79°
2026-05-07 20:28 51.12970 -0.32312 1752 ft 160 kts 79°
2026-05-07 20:28 51.13203 -0.30644 1529 ft 150 kts 79°
2026-05-07 20:28 51.13421 -0.29084 1336 ft 135 kts 79°
2026-05-07 20:29 51.13617 -0.27674 1148 ft 127 kts 79°
2026-05-07 20:29 51.13803 -0.26331 970 ft 124 kts 79°
2026-05-07 20:29 51.13988 -0.24996 798 ft 123 kts 79°
2026-05-07 20:29 51.14173 -0.23668 630 ft 123 kts 79°
2026-05-07 20:30 51.14357 -0.22340 462 ft 122 kts 79°
2026-05-07 20:30 51.14540 -0.21019 303 ft 122 kts 78°
2026-05-07 20:30 51.14718 -0.19748 212 ft 106 kts 78°
2026-05-07 20:30 51.14839 -0.18857 207 ft 60 kts 77°
2026-05-07 20:31 51.14946 -0.18505 210 ft 21 kts 47°
2026-05-07 20:31 51.15021 -0.18359 205 ft 17 kts 51°
2026-05-07 20:31 51.15060 -0.18280 204 ft 6 kts 51°
2026-05-07 20:31 51.15081 -0.18241 208 ft 4 kts 50°
2026-05-07 20:32 51.15099 -0.18207 205 ft 3 kts 49°
2026-05-07 20:32 51.15114 -0.18190 205 ft 2 kts 26°
2026-05-07 20:32 51.15135 -0.18192 205 ft 4 kts 349°
2026-05-07 20:32 51.15190 -0.18210 213 ft 11 kts 349°
2026-05-07 20:33 51.15267 -0.18238 208 ft 11 kts 347°
2026-05-07 20:33 51.15339 -0.18264 205 ft 10 kts 347°
2026-05-07 20:33 51.15391 -0.18282 210 ft 8 kts 348°
2026-05-07 20:33 51.15429 -0.18294 205 ft 3 kts 348°
2026-05-07 20:34 51.15451 -0.18301 212 ft 4 kts 348°
2026-05-07 20:34 51.15483 -0.18312 205 ft 5 kts 348°
2026-05-07 20:34 51.15524 -0.18325 212 ft 7 kts 348°
2026-05-07 20:34 51.15575 -0.18343 205 ft 8 kts 347°
2026-05-07 20:35 51.15632 -0.18356 209 ft 8 kts 10°
2026-05-07 20:35 51.15656 -0.18277 205 ft 9 kts 78°
2026-05-07 20:35 51.15670 -0.18172 205 ft 11 kts 77°
2026-05-07 20:35 51.15687 -0.18066 205 ft 9 kts 69°
2026-05-07 20:36 51.15731 -0.17989 205 ft 10 kts 31°
2026-05-07 20:36 51.15763 -0.17957 208 ft 4 kts 32°
2026-05-07 20:36 51.15773 -0.17947 205 ft 1 kts 33°
2026-05-07 20:36 51.15776 -0.17944 205 ft 0 kts 33°
2026-05-07 20:37 51.15777 -0.17943 205 ft 0 kts 33°